TimePST,TemperatureF,Dew PointF,Humidity,Sea Level PressureIn,VisibilityMPH,Wind Direction,Wind SpeedMPH,Gust SpeedMPH,PrecipitationIn,Events,Conditions,WindDirDegrees,DateUTC
12:03 AM,30.2,28.4,93,29.83,0.8,SW,12.7,26.5,0.01,Snow,Light Snow,230,2013-03-03 08:03:00
12:14 AM,30.2,28.4,93,29.82,0.5,SW,13.8,32.2,0.02,Fog-Snow,Snow,230,2013-03-03 08:14:00
12:19 AM,30.2,28.4,93,29.82,1.0,WSW,9.2,32.2,0.02,Snow,Light Snow,250,2013-03-03 08:19:00
12:26 AM,30.2,28.4,93,29.81,0.8,SSW,10.4,21.9,0.04,Snow,Light Snow,210,2013-03-03 08:26:00
12:34 AM,30.2,28.4,93,29.81,0.5,SW,12.7,29.9,0.05,Fog-Snow,Snow,230,2013-03-03 08:34:00
12:53 AM,28.9,28.9,100,29.69,-9999.0,SW,13.8,28.8,0.06,Snow,Snow,230,2013-03-03 08:53:00
1:16 AM,28.4,28.4,100,29.78,1.2,WSW,10.4,28.8,0.02,Snow,Light Snow,240,2013-03-03 09:16:00
1:24 AM,28.4,28.4,100,29.78,2.0,West,9.2,24.2,0.02,Snow,Light Snow,260,2013-03-03 09:24:00
1:33 AM,28.4,28.4,100,29.77,1.8,WSW,10.4,26.5,0.03,Snow,Light Snow,240,2013-03-03 09:33:00
1:36 AM,28.4,28.4,100,29.78,1.0,WSW,11.5,26.5,0.04,Snow,Light Snow,240,2013-03-03 09:36:00
1:48 AM,28.4,28.4,100,29.77,2.0,WSW,13.8,23.0,0.04,Snow,Light Snow,240,2013-03-03 09:48:00
1:53 AM,28.9,28.0,96,29.66,3.0,West,11.5,24.2,0.04,Snow,Light Snow,260,2013-03-03 09:53:00
2:00 AM,28.4,28.4,100,29.76,4.0,WSW,13.8,36.8,0.00,Snow,Light Snow,240,2013-03-03 10:00:00
2:16 AM,28.4,26.6,93,29.76,2.5,SW,12.7,26.5,0.01,Snow,Light Snow,220,2013-03-03 10:16:00
2:20 AM,28.4,26.6,93,29.76,1.2,WSW,8.1,26.5,0.01,Snow,Light Snow,250,2013-03-03 10:20:00
2:27 AM,28.4,28.4,100,29.76,0.8,Variable,6.9,21.9,0.01,Snow,Light Snow,0,2013-03-03 10:27:00
2:36 AM,28.4,28.4,100,29.76,0.5,WNW,9.2,19.6,0.02,Fog-Snow,Snow,300,2013-03-03 10:36:00
2:53 AM,27.0,26.1,96,29.67,0.5,Variable,6.9,25.3,0.03,Fog-Snow,Snow,0,2013-03-03 10:53:00
3:01 AM,26.6,26.6,100,29.76,0.2,NW,11.5,26.5,0.03,Fog-Snow,Heavy Snow,310,2013-03-03 11:01:00
3:29 AM,23.0,23.0,100,29.76,0.5,NW,10.4,33.4,0.09,Fog-Snow,Light Snow,320,2013-03-03 11:29:00
3:36 AM,23.0,21.2,93,29.77,1.5,WNW,15.0,33.4,0.09,Snow,Light Snow,290,2013-03-03 11:36:00
3:44 AM,21.2,19.4,93,29.77,1.8,WSW,12.7,29.9,0.09,Snow,Light Snow,240,2013-03-03 11:44:00
3:51 AM,21.2,21.2,100,29.77,1.8,WSW,10.4,29.9,0.09,Snow,Light Snow,240,2013-03-03 11:51:00
4:19 AM,21.2,17.6,86,29.76,9.0,WSW,16.1,31.1,0.00,,Mostly Cloudy,240,2013-03-03 12:19:00
4:26 AM,21.2,17.6,86,29.76,7.0,WSW,12.7,26.5,0.00,,Mostly Cloudy,250,2013-03-03 12:26:00
4:53 AM,19.9,16.0,85,29.86,10.0,WNW,12.7,25.3,0.00,,Clear,290,2013-03-03 12:53:00
5:31 AM,19.4,15.8,86,29.77,10.0,West,11.5,25.3,N/A,,Mostly Cloudy,270,2013-03-03 13:31:00
5:53 AM,19.0,14.0,81,29.88,9.0,West,8.1,28.8,0.00,,Mostly Cloudy,270,2013-03-03 13:53:00
6:10 AM,17.6,14.0,86,29.78,10.0,West,10.4,25.3,0.00,,Mostly Cloudy,270,2013-03-03 14:10:00
6:40 AM,17.6,12.2,79,29.78,10.0,Variable,5.8,-,0.00,,Overcast,0,2013-03-03 14:40:00
6:53 AM,17.1,12.9,84,29.90,10.0,Variable,5.8,-,0.00,,Overcast,0,2013-03-03 14:53:00
7:37 AM,17.6,12.2,79,29.78,10.0,SW,9.2,19.6,N/A,,Overcast,230,2013-03-03 15:37:00
7:45 AM,17.6,12.2,79,29.78,10.0,SSW,8.1,19.6,N/A,,Overcast,200,2013-03-03 15:45:00
7:53 AM,16.0,14.0,92,29.91,-9999.0,SW,11.5,20.7,N/A,,Overcast,220,2013-03-03 15:53:00
8:35 AM,15.8,14.0,93,29.78,2.5,WSW,9.2,21.9,0.00,Snow,Light Snow,250,2013-03-03 16:35:00
8:45 AM,17.6,15.8,93,29.79,1.5,WSW,12.7,21.9,0.00,Snow,Light Snow,250,2013-03-03 16:45:00
8:53 AM,16.0,14.0,92,29.92,1.5,WSW,11.5,24.2,0.00,Snow,Light Snow,240,2013-03-03 16:53:00
9:20 AM,17.6,14.0,86,29.79,1.0,WSW,10.4,20.7,0.00,Snow,Light Snow,250,2013-03-03 17:20:00
9:28 AM,17.6,15.8,93,29.79,0.8,WSW,11.5,24.2,0.01,Snow,Light Snow,240,2013-03-03 17:28:00
9:53 AM,17.1,15.1,92,29.92,0.8,WSW,9.2,23.0,0.01,Snow,Light Snow,250,2013-03-03 17:53:00
10:00 AM,17.6,15.8,93,29.80,1.2,WSW,9.2,20.7,0.00,Snow,Light Snow,250,2013-03-03 18:00:00
10:05 AM,17.6,15.8,93,29.80,1.8,SW,11.5,20.7,0.00,Snow,Light Snow,230,2013-03-03 18:05:00
10:10 AM,17.6,15.8,93,29.80,3.0,SW,11.5,20.7,0.00,Snow,Light Snow,230,2013-03-03 18:10:00
10:19 AM,17.6,15.8,93,29.80,6.0,WSW,15.0,23.0,0.00,Snow,Light Snow,240,2013-03-03 18:19:00
10:51 AM,17.6,15.8,93,29.80,0.8,SW,9.2,21.9,0.00,Snow,Light Snow,230,2013-03-03 18:51:00
10:52 AM,18.0,16.0,92,29.91,0.5,WSW,8.1,21.9,0.00,Fog-Snow,Light Snow,240,2013-03-03 18:52:00
11:12 AM,17.6,15.8,93,29.80,0.2,WSW,9.2,21.9,0.00,Fog-Snow,Snow,240,2013-03-03 19:12:00
11:21 AM,17.6,17.6,100,29.81,0.2,Variable,6.9,19.6,0.00,Fog-Snow,Snow,0,2013-03-03 19:21:00
11:45 AM,19.4,17.6,93,29.82,0.5,Calm,Calm,-,0.01,Fog-Snow,Snow,0,2013-03-03 19:45:00
11:53 AM,19.0,17.1,92,29.94,0.8,Variable,3.5,-,0.01,Snow,Light Snow,0,2013-03-03 19:53:00
12:08 PM,19.4,17.6,93,29.83,1.2,West,8.1,-,0.00,Snow,Light Snow,280,2013-03-03 20:08:00
12:23 PM,19.4,15.8,86,29.83,1.5,West,8.1,21.9,0.00,Snow,Light Snow,280,2013-03-03 20:23:00
12:25 PM,19.4,15.8,86,29.83,3.0,Variable,5.8,21.9,0.00,Snow,Light Snow,0,2013-03-03 20:25:00
12:34 PM,19.4,15.8,86,29.83,7.0,Variable,5.8,-,0.00,Snow,Light Snow,0,2013-03-03 20:34:00
12:53 PM,19.0,16.0,88,29.96,7.0,Variable,5.8,-,0.00,Snow,Light Snow,0,2013-03-03 20:53:00
1:03 PM,19.4,15.8,86,29.84,3.0,WNW,8.1,-,0.00,Snow,Light Snow,290,2013-03-03 21:03:00
1:11 PM,19.4,15.8,86,29.84,2.0,Variable,5.8,-,0.00,Snow,Light Snow,0,2013-03-03 21:11:00
1:25 PM,19.4,15.8,86,29.84,4.0,WNW,10.4,18.4,0.00,Snow,Light Snow,290,2013-03-03 21:25:00
1:53 PM,19.9,17.1,89,29.96,4.0,Variable,5.8,-,0.00,Snow,Light Snow,0,2013-03-03 21:53:00
2:17 PM,21.2,17.6,86,29.85,6.0,Variable,3.5,-,0.00,Snow,Light Snow,0,2013-03-03 22:17:00
2:53 PM,21.9,17.1,82,29.97,10.0,Variable,6.9,-,0.00,,Overcast,0,2013-03-03 22:53:00
3:01 PM,21.2,15.8,80,29.86,10.0,West,11.5,27.6,N/A,,Overcast,280,2013-03-03 23:01:00
3:17 PM,21.2,15.8,80,29.87,9.0,Variable,5.8,23.0,N/A,,Overcast,0,2013-03-03 23:17:00
3:44 PM,21.2,15.8,80,29.87,10.0,Variable,6.9,-,N/A,,Overcast,0,2013-03-03 23:44:00
3:53 PM,21.0,15.1,78,30.02,10.0,Variable,6.9,-,N/A,,Overcast,0,2013-03-03 23:53:00
4:53 PM,21.0,15.1,78,30.05,10.0,Variable,4.6,-,N/A,,Overcast,0,2013-03-04 00:53:00
5:35 PM,19.4,14.0,80,29.90,10.0,West,9.2,-,N/A,,Overcast,280,2013-03-04 01:35:00
5:53 PM,19.9,14.0,78,30.08,10.0,Variable,5.8,-,N/A,,Overcast,0,2013-03-04 01:53:00
6:23 PM,19.4,14.0,80,29.92,10.0,WNW,5.8,-,N/A,,Overcast,290,2013-03-04 02:23:00
6:53 PM,19.9,15.1,81,30.11,3.0,WNW,5.8,-,0.00,Snow,Light Snow,300,2013-03-04 02:53:00
7:20 PM,19.4,15.8,86,29.94,1.8,Variable,4.6,-,0.00,Snow,Light Snow,0,2013-03-04 03:20:00
7:30 PM,19.4,15.8,86,29.94,1.0,NW,6.9,-,0.00,Snow,Light Snow,310,2013-03-04 03:30:00
7:37 PM,19.4,15.8,86,29.94,1.2,Variable,4.6,-,0.00,Snow,Light Snow,0,2013-03-04 03:37:00
7:53 PM,19.9,15.1,81,30.14,2.0,NW,5.8,-,0.00,Snow,Light Snow,310,2013-03-04 03:53:00
8:06 PM,19.4,15.8,86,29.95,1.5,Calm,Calm,-,0.01,Snow,Light Snow,0,2013-03-04 04:06:00
8:20 PM,19.4,17.6,93,29.95,2.5,NNW,3.5,-,0.01,Snow,Light Snow,340,2013-03-04 04:20:00
8:35 PM,19.4,17.6,93,29.95,5.0,Variable,4.6,-,0.01,Snow,Light Snow,0,2013-03-04 04:35:00
8:53 PM,19.0,17.1,92,30.15,5.0,NW,6.9,-,0.01,Snow,Light Snow,320,2013-03-04 04:53:00
9:11 PM,19.4,17.6,93,29.96,3.0,NNW,4.6,-,0.00,Snow,Light Snow,330,2013-03-04 05:11:00
9:13 PM,19.4,17.6,93,29.97,2.5,NNW,4.6,-,0.00,Snow,Light Snow,330,2013-03-04 05:13:00
9:23 PM,19.4,17.6,93,29.97,4.0,NNW,6.9,-,0.00,Snow,Light Snow,330,2013-03-04 05:23:00
9:28 PM,19.4,17.6,93,29.97,2.0,North,8.1,-,0.00,Snow,Light Snow,360,2013-03-04 05:28:00
9:30 PM,19.4,17.6,93,29.97,1.0,North,9.2,-,0.00,Snow,Light Snow,10,2013-03-04 05:30:00
9:35 PM,17.6,15.8,93,29.97,0.2,North,8.1,-,0.00,Fog-Snow,Heavy Snow,360,2013-03-04 05:35:00
9:42 PM,17.6,15.8,93,29.97,0.2,North,6.9,-,0.01,Fog-Snow,Snow,360,2013-03-04 05:42:00
9:48 PM,17.6,15.8,93,29.97,0.8,Variable,6.9,-,0.01,Snow,Light Snow,0,2013-03-04 05:48:00
9:49 PM,17.1,16.0,96,30.17,0.8,North,5.8,-,0.01,Snow,Light Snow,10,2013-03-04 05:49:00
9:56 PM,17.6,15.8,93,29.97,1.5,Variable,3.5,-,0.00,Snow,Light Snow,0,2013-03-04 05:56:00
10:03 PM,17.6,15.8,93,29.98,2.5,Calm,Calm,-,0.00,Snow,Light Snow,0,2013-03-04 06:03:00
10:06 PM,17.6,15.8,93,29.98,2.5,Calm,Calm,-,0.00,Snow,Light Snow,0,2013-03-04 06:06:00
10:20 PM,17.6,15.8,93,29.99,3.0,Calm,Calm,-,0.00,Snow,Light Snow,0,2013-03-04 06:20:00
10:30 PM,17.6,15.8,93,29.99,4.0,Calm,Calm,-,0.00,Snow,Light Snow,0,2013-03-04 06:30:00
10:53 PM,17.1,15.1,92,30.19,9.0,Variable,4.6,-,0.00,,Overcast,0,2013-03-04 06:53:00
11:01 PM,15.8,15.8,100,29.99,9.0,Calm,Calm,-,N/A,,Overcast,0,2013-03-04 07:01:00
11:10 PM,15.8,14.0,93,30.00,10.0,Calm,Calm,-,N/A,,Overcast,0,2013-03-04 07:10:00
11:53 PM,16.0,14.0,92,30.20,10.0,Calm,Calm,-,N/A,,Overcast,0,2013-03-04 07:53:00